Regional Weather Roundup
Issued by NWS

Home | Current Version | Previous Version | Graphics & Text | Print | Product List | Glossary On
Versions: 1 2 3 4 5 6 7 8 9 10 11 12 13 14 15 16 17 18 19 20 21 22 23 24 25 26 27 28 29 30 31 32 33 34 35 36 37 38 39 40 41 42 43 44 45 46 47 48 49 50
000
ASUS43 KLSX 242110
RWRMO

WEATHER SUMMARY FOR MISSOURI
NATIONAL WEATHER SERVICE SPRINGFIELD MO
400 PM CDT WED AUG 24 2016

NOTE: "FAIR" INDICATES FEW OR NO CLOUDS BELOW 12,000 FEET WITH NO
       SIGNIFICANT WEATHER AND/OR OBSTRUCTIONS TO VISIBILITY.
       CURRENT SKY AND/OR WEATHER CONDITIONS ARE NOT AVAILABLE FOR
       CHILLICOTHE AND FARMINGTON.

MOZ001>031-035>038-043-044-053-054-242200-
...NORTHERN AND WESTERN MISSOURI...

CITY           SKY/WX    TMP DP  RH WIND       PRES   REMARKS
KANSAS CTY INT PTSUNNY   83  69  62 SW12      30.00R
KANSAS C DTWN  SUNNY     87  71  58 W7        29.98S HX  93
LEE`S SUMMIT   MOSUNNY   88  69  53 VRB3      30.00F HX  92
ST JOSEPH      CLOUDY    78  73  84 SW7       29.99R
CHILLICOTHE      N/A     81  74  79 S6        30.01F
KIRKSVILLE     LGT RAIN  81  72  74 VRB6      30.02S

$$
MOZ066>068-077>081-088>096-101>105-242200-
...SOUTHWEST MISSOURI...

CITY           SKY/WX    TMP DP  RH WIND       PRES   REMARKS
SPRINGFIELD    MOSUNNY   91  71  51 S13       30.04F HX  97
JOPLIN         SUNNY     94  69  44 S15G21    30.00F HX  99
BRANSON        PTSUNNY   90  72  55 S5        30.09F HX  96

$$
MOZ032>034-039>042-045>050-055>058-069>072-242200-
...CENTRAL MISSOURI...

CITY           SKY/WX    TMP DP  RH WIND       PRES   REMARKS
COLUMBIA       PTSUNNY   89  75  63 S9        30.01F HX  99
JEFFERSON CITY MOSUNNY   90  74  59 SW9       29.99F HX  99
ROLLA          MOSUNNY   88  75  65 S12       30.04F HX  97
SEDALIA        PTSUNNY   89  74  60 S9        30.02F HX  98
WHITEMAN AFB   PTSUNNY   89  73  59 W5        29.99F HX  97
OSAGE BEACH    PTSUNNY   90  75  61 SW7       30.03F HX 100

$$
MOZ051-052-059>065-242200-
...EAST CENTRAL MISSOURI...

CITY           SKY/WX    TMP DP  RH WIND       PRES   REMARKS
ST LOUIS INTL  PTSUNNY   94  72  48 SW9       30.00F HX 102
SPIRIT OF STL  CLOUDY    93  75  55 SW12      29.98F HX 104
ST CHARLES     MOSUNNY   91  72  53 SW6       29.98F HX  98

$$
MOZ072>076-082>087-097>100-106>115-242200-
...SOUTH CENTRAL AND SOUTHEAST MISSOURI...

CITY           SKY/WX    TMP DP  RH WIND       PRES   REMARKS
CAPE GIRARDEAU SUNNY     90  72  55 SW14G22   30.05F HX  97
FARMINGTON     PTSUNNY   90  77  65 S12       30.05F HX 103
POPLAR BLUFF   SUNNY     90  75  61 SW15G23   30.05  HX 100
WEST PLAINS    MOSUNNY   87  72  60 S9        30.10F HX  93

$$




USA.gov is the U.S. government's official web portal to all federal, state and local government web resources and services.